STARLINK-37008, 68564

Orbit data source: Space-Track

STARLINK-37008, 68564 is a payload satellite owned by SpaceX/Seattle (US) in LEO that was launched on Thu, 02 Apr 2026 UTC via an FALCON 9 launch vehicle from the Air Force Eastern Test Range (AFETR). Payload-class satellites include a variety of spacecraft equipped with specific instruments for various scientific and technological missions. These include communications satellites like Starlink; space stations such as the ISS; scientific satellites like the Hubble; Earth observation satellites from companies like Planet Labs, Umbra, and HawkEye 360; GPS; miniature CubeSats for education and research; and military/defense satellites.

Loading next visibility...
Identifier
68564, 2026-070Y
Orbit
LEO
Country
Flag of USUS
Related business
Manufacturer
SpaceX/Seattle
Mission
Operational spacecraft
Bus & Motor
STARLINK V2MO, Unknown motor
Mass
575 kg wet, ~530 kg dry
Launch date (UTC)
2026-04-02 (2 months ago)
Launch vehicle
FALCON 9
Launch site
Air Force Eastern Test Range (AFETR)
Object type
Payload
Rocket body
Debris
Shape & HBR
Unknown shape, 14.5 m
Radar Cross Section
RCS unknown

Expand to show TLE details & history
Last TLE update: 10 hours ago

TLE from 10 hours ago
0 STARLINK-37008
1 68564U 26070Y   26145.62011439  .00024603  00000-0  73640-3 0  9996
2 68564  53.1593   4.4822 0001103  81.0705 279.0422 15.34421490  8347
Epoch: 2026-05-25T14:52Z
TLE epoch observation values (Epoch: 2026-05-25T14:52:57.883Z)
Latitude
-0.00005°
Longitude
-101.96431°
Altitude
463.422 km
Speed
7.636 km/s
True Right ascension
00h 17m 55s
True Declination
0° 00' 00"
Sunlit
Object was in daylight at epoch
Visualization orbit readout
Latitude
Unknown
Longitude
Unknown
Altitude
Unknown
Speed
Unknown
Apparent Right ascension
Unknown
Apparent Declination
Unknown
Sunlit
N/A
Visualization observer readout
Local Sidereal Time
10:21:21
Azimuth
Unknown
Elevation
Unknown
Doppler factor
Unknown
Orbital elements
Apogee altitude
463.651 km
Perigee altitude
462.142 km
Semi-major axis
6,841.033 km
Eccentricity
0.00011
Inclination
53.1593°
RAAN
4.4822°
Arg. of periapsis
81.0705°
True anomaly
279.02972°
Mean anomaly
279.0422°
Eccentric anomaly
279.03596°
Mean motion
3.83584 °/min
Orbital period
93.85 mins
BSTAR
0.0007364
Loading maneuver chart data...
Computing Atmospheric mass density...
Loading historical data...
Loading historical data...
Loading historical data...
Loading historical data...
Loading historical data...
Loading historical data...
Loading historical data...

Documentation

Showing up to 5 results
|